Location: Cicognara
(44.9500°N, 10.4667°E)
Time: 17:44:47
(UTC+00:00)

Cosmos 1025 Rocket - Visible Passes

Search period start: 21 October 2021 00:00
Search period end: 31 October 2021 00:00
Orbit: 593 x 619 km, 82.5° (Epoch: 20 October)

Date Brightness Start Highest point End Pass type
(mag) Time Alt. Az. Time Alt. Az. Time Alt. Az.
21 Oct 6.1 03:40:01 10° SE 03:42:43 17° E 03:45:27 10° NE visible
21 Oct 6.2 16:59:23 10° NW 17:01:50 15° W 17:04:18 10° WSW visible
22 Oct 5.3 03:52:09 10° SE 03:55:46 26° E 03:59:22 10° NNE visible
23 Oct 4.3 04:04:45 10° SSE 04:08:51 44° E 04:12:57 10° NNE visible
24 Oct 3.2 04:17:42 10° S 04:22:00 75° E 04:26:19 10° NNE visible
25 Oct 6.3 02:56:40 10° ESE 02:58:14 12° E 02:59:47 10° ENE visible
25 Oct 2.9 04:30:58 10° SSW 04:35:14 65° W 04:39:31 10° N visible
26 Oct 5.7 03:08:09 10° SE 03:11:13 19° E 03:14:16 10° NE visible
26 Oct 3.4 04:44:29 10° SW 04:48:31 38° WNW 04:52:33 10° N visible
27 Oct 4.8 03:20:28 10° SSE 03:24:15 31° E 03:28:03 10° NNE visible
27 Oct 4.1 04:58:23 10° SW 05:01:52 24° WNW 05:05:23 10° NNW visible
28 Oct 3.7 03:33:12 10° S 03:37:22 52° E 03:41:33 10° NNE visible
28 Oct 4.6 05:12:45 10° WSW 05:15:18 15° WNW 05:17:51 10° NNW visible
29 Oct 2.9 03:47:54 23° S 03:50:33 89° E 03:54:50 10° N visible
30 Oct 5.9 02:26:21 14° E 02:26:41 14° E 02:28:53 10° NE visible
30 Oct 3.0 04:03:21 51° WSW 04:03:47 54° W 04:08:00 10° N visible
